Location: Krakow
(50.0830°N, 19.9170°E)
Time: 07:21:47
(UTC+02:00)

Tiros 1 despin weight - Pass Details

Date: 18 March 2026
Orbit: 555 x 592 km, 48.2° (Epoch: 18 April)

Event Time Altitude Azimuth Distance (km) Brightness Sun altitude
Rises 04:12:34 0° 229° (SW) 2,814 - -15.9°
Reaches altitude 10° 04:14:58 10° 221° (SW) 1,912 - -15.5°
Exits shadow 04:16:21 18° 211° (SSW) 1,443 ? -15.3°
Maximum altitude 04:18:59 36° 155° (SSE) 941 ? -14.9°
Drops below altitude 10° 04:22:59 10° 89° (E) 1,904 ? -14.3°
Sets 04:25:22 0° 80° (E) 2,799 ? -13.9°
